Regional Weather Roundup
Issued by NWS New Orleans/Baton Rouge, LA

Home | Current Version | Previous Version | Text Only | Print | Product List | Glossary On
Versions: 1 2 3 4 5 6 7 8 9 10 11 12 13 14 15 16 17 18 19 20 21 22 23 24 25 26 27 28 29 30 31 32 33 34 35 36 37 38 39 40 41 42 43 44 45 46 47 48 49 50
000
ASUS44 KLIX 300311
RWRLIX
NEW ORLEANS REGIONAL WEATHER ROUNDUP
NATIONAL WEATHER SERVICE NEW ORLEANS LA
1000 PM CDT FRI MAY 29 2015

NOTE: "FAIR" INDICATES FEW OR NO CLOUDS BELOW 12,000 FEET WITH NO
      SIGNIFICANT WEATHER AND/OR OBSTRUCTIONS TO VISIBILITY.
      SKY/WX - SKY CONDITION AND SIGNIFICANT WEATHER.
      TMP - AIR TEMPERATURE.     DP    - DEWPOINT TEMPERATURE.
      RH  - RELATIVE HUMIDITY.   PRES  - PRESSURE.
      HI  - HEAT INDEX.          WCI   - WIND CHILL INDEX.

*  THESE STATIONS ARE NOT NWS OR FAA STATIONS AND ARE NOT UNDER
   NWS QUALITY CONTROL.

LAZ038-040-048-061>063-065>067-069-300400-
SOUTHEAST LOUISIANA

CITY           SKY/WX    TMP DP  RH WIND       PRES   REMARKS
N.O. AUDUBON     N/A     79  72  79 MISG        N/A
N.O. INTL ARPT MOCLDY    78  68  71 SE7       30.04S
N.O. LAKEFRONT PTCLDY    80  69  69 SE7       30.05S
SLIDELL        PTCLDY    76  73  91 SE6       30.05R
BATON ROUGE    MOCLDY    75  71  87 E3        30.04R
BOOTHVILLE     CLEAR     77  72  84 SE5       30.06S
BELLE CHASSE   PTCLDY    72  69  90 CALM      30.04S
BOGALUSA*        N/A     74  70  86 CALM      30.07R
GALLIANO*      PTCLDY    78  70  74 SE3       30.04S
NEW ROADS*       N/A     76  70  83 S5        30.05R
GONZALES*        N/A     74  74 100 CALM      30.04R
HAMMOND*       PTCLDY    75  68  78 CALM      30.06R
HOUMA*         MOCLDY    75  71  87 SE3       30.04R
PORT FOURCHON* PTCLDY    81  70  69 SE10      30.05R

$$

MSZ070-080>082-300400-
SOUTHERN MISSISSIPPI

CITY           SKY/WX    TMP DP  RH WIND       PRES   REMARKS
MCCOMB         PTCLDY    73  71  93 S3        30.06R
GULFPORT       CLEAR     80  70  71 SE8       30.06R
BILOXI         PTCLDY    80  72  76 S9        30.06S
PASCAGOULA     CLEAR     73  71  93 CALM      30.07S

$$

COASTAL OBSERVATIONS
LAKE AND NEARSHORE STATIONS

STATION/POSITION TIME  TEMP    WIND        PRES    WAVE
                       AIR SEA DIR/SP/G            HT/PER
                 (UTC) (F)     (DEG/KT/KT) (MB)    (FT/S)
PASCAGOULA       0200   80     150/  9/ 12 1017.7
WAVELAND YACHT   0200   81 83  150/ 14/ 17 1017.8
GRAND ISLE       0200   80 84  150/  7/ 11 1017.3
SOUTHWEST PASS   0200   80 75  130/ 11/ 14 1017.8
NEW CANAL        0200   81 81  190/  5/  8 1016.7
SHELL BEACH      0200   79 83  130/ 10/ 12 1016.9

OFFSHORE STATIONS

STATION/POSITION TIME  TEMP    WIND        PRES    WAVE
                       AIR SEA DIR/SP/G            HT/PER
                 (UTC) (F)     (DEG/KT/KT) (MB)    (FT/S)
64 S DAUPHIN ISL 0250   79 81  130/ 12/ 14 1018.5    3/ 5

$$




USA.gov is the U.S. government's official web portal to all federal, state and local government web resources and services.